Showing default

PATHFINDER 1, 41787

Orbit data source: Space-Track

PATHFINDER 1, 41787 is a payload satellite owned by BlackSky Global (US) in SSO that was launched on Mon, 26 Sep 2016 UTC via a PSLV launch vehicle from the Sirharikota (SRI). Payload-class satellites include a variety of spacecraft equipped with specific instruments for various scientific and technological missions. These include communications satellites like Starlink; space stations such as the ISS; scientific satellites like the Hubble; Earth observation satellites from companies like Planet Labs, Umbra, and HawkEye 360; GPS; miniature CubeSats for education and research; and military/defense satellites.

Loading next visibility...
Identifier
41787, 2016-059E
Orbit
SSO
Country
Flag of USUS
Related business
Manufacturer
Spaceflight Ind
Mission
Operational Commercial Imaging
Bus & Motor
BSKY, Unknown motor
Mass
~44 kg wet, 44 kg dry
Launch date (UTC)
2016-09-26 (9 years ago)
Launch vehicle
PSLV
Launch site
Sirharikota (SRI)
Object type
Payload
Rocket body
Debris
Shape & HBR
Box, 0.5 m
Radar Cross Section
1.000 m², Medium (>0.1 m² and < 1m²)

Expand to show TLE details & history
Last TLE update: 12 hours ago

TLE from 12 hours ago
0 PATHFINDER 1
1 41787U 16059E   25258.26995790  .00000946  00000-0  17581-3 0  9991
2 41787  97.8158 265.1423 0028844   5.8838 354.2701 14.67079390479398
Epoch: 2025-09-15T06:28Z
TLE epoch observation values (Epoch: 2025-09-15T06:28:44.362Z)
Latitude
0.00004°
Longitude
173.48043°
Altitude
653.181 km
Speed
7.542 km/s
True Right ascension
17h 40m 34s
True Declination
0° 00' 00"
Sunlit
Object was in daylight at epoch
Visualization orbit readout
Latitude
Unknown
Longitude
Unknown
Altitude
Unknown
Speed
Unknown
Apparent Right ascension
Unknown
Apparent Declination
Unknown
Sunlit
N/A
Visualization observer readout
Local Sidereal Time
11:10:55
Azimuth
Unknown
Elevation
Unknown
Doppler factor
Unknown
Orbital elements
Apogee altitude
687.784 km
Perigee altitude
647.139 km
Semi-major axis
7,045.599 km
Eccentricity
0.00288
Inclination
97.8158°
RAAN
265.1423°
Arg. of periapsis
5.8838°
True anomaly
354.23698°
Mean anomaly
354.2701°
Eccentric anomaly
354.25355°
Mean motion
3.67 °/min
Orbital period
98.09 mins
BSTAR
0.00017581
Loading maneuver chart data...
Computing Atmospheric mass density...
Loading historical data...
Loading historical data...
Loading historical data...
Loading historical data...
Loading historical data...
Loading historical data...
Loading historical data...

Documentation

Showing up to 5 results
|